Location: Unspecified
(0.0000°N, 0.0000°E)
Time: 16:02:00
(UTC+00:00)

COSMOS 1275 DEB - Pass Details

Date: 17 February 2026
Orbit: 902 x 1038 km, 83.0° (Epoch: 19 November)

Event Time Altitude Azimuth Distance (km) Brightness Sun altitude
Rises 05:12:13 0° 188° (S) 3,739 ? -15.1°
Reaches altitude 10° 05:14:48 10° 190° (S) 2,776 ? -14.5°
Maximum altitude 05:21:08 70° 273° (W) 1,041 ? -12.9°
Drops below altitude 10° 05:27:17 10° 356° (N) 2,692 ? -11.4°
Sets 05:29:45 0° 358° (N) 3,618 ? -10.8°
